Weather History for Pipestone, MN

Change the Weather History Date:

Friday, April 26, 2013

  Actual Average Record
Temperature  
Mean Temperature 50 °F -  
Max Temperature 62 °F 59 °F 75 °F (2001)
Min Temperature 37 °F 38 °F 24 °F (2008)
Degree Days  
Heating Degree Days 16    
Moisture  
Dew Point 36 °F    
Average Humidity 58    
Maximum Humidity 87    
Minimum Humidity 26    
Precipitation  
Precipitation 0.00 in - - ()
Sea Level Pressure  
Sea Level Pressure 30.04 in    
Wind  
Wind Speed 11 mph (West)    
Max Wind Speed 21 mph    
Max Gust Speed -    
Visibility 10 miles    
Events      
Averages and records for this station are not official NWS values.
T = Trace of Precipitation, MM = Missing Value Source: NWS Daily Summary

Daily Weather History Graph

Daily Weather History Graph

Search for Another Location

Airport:

Trip Planner

Search our weather history database for the weather conditions in past years. The results will help you decide how hot, cold, wet, or windy it might be!

Date:

Astronomy

Apr. 26, 2013 Rise Set
Actual Time 6:23 AM CDT 8:22 PM CDT
Civil Twilight 5:52 AM CDT 8:54 PM CDT
Nautical Twilight 5:14 AM CDT 9:32 PM CDT
Astronomical Twilight 4:32 AM CDT 10:14 PM CDT
Moon 9:49 PM CDT (4/26) 6:50 AM CDT (4/26)
Length of Visible Light 15h 01m
Length of Day
13h 58m
Full, 99% of the Moon is Illuminated
Apr 26
Full
May 2
Last Quarter
May 9
New
May 17
First Quarter
May 24
Full

Hourly Weather History & Observations

Time (CDT) Temp. Windchill Dew Point Humidity Pressure Visibility Wind Dir Wind Speed Gust Speed Precip Events Conditions
12:13 AM 46.4 °F 39.0 °F 35.6 °F 66% 29.91 in 10.0 mi South 19.6 mph - N/A   Clear
12:33 AM 44.6 °F 36.6 °F 35.6 °F 71% 29.91 in 10.0 mi South 19.6 mph - N/A   Clear
12:53 AM 44.6 °F 36.4 °F 35.6 °F 71% 29.91 in 10.0 mi SSW 20.7 mph - N/A   Clear
1:13 AM 44.6 °F 36.6 °F 35.6 °F 71% 29.92 in 10.0 mi SSW 19.6 mph - N/A   Clear
1:33 AM 42.8 °F 34.5 °F 35.6 °F 76% 29.92 in 10.0 mi SSW 18.4 mph - N/A   Clear
1:53 AM 42.8 °F 34.8 °F 35.6 °F 76% 29.91 in 10.0 mi SSW 17.3 mph - N/A   Clear
2:13 AM 42.8 °F 34.8 °F 35.6 °F 76% 29.91 in 10.0 mi SSW 17.3 mph - N/A   Clear
2:33 AM 42.8 °F 36.2 °F 35.6 °F 76% 29.92 in 10.0 mi SW 12.7 mph - N/A   Clear
2:53 AM 42.8 °F 36.2 °F 35.6 °F 76% 29.92 in 10.0 mi SW 12.7 mph - N/A   Clear
3:13 AM 41.0 °F 33.9 °F 35.6 °F 81% 29.92 in 10.0 mi SSW 12.7 mph - N/A   Clear
3:33 AM 41.0 °F 33.9 °F 35.6 °F 81% 29.92 in 10.0 mi SSW 12.7 mph - N/A   Clear
3:54 AM 41.0 °F 33.9 °F 35.6 °F 81% 29.92 in 10.0 mi SSW 12.7 mph - N/A   Clear
4:13 AM 41.0 °F 33.5 °F 35.6 °F 81% 29.92 in 10.0 mi SSW 13.8 mph - N/A   Clear
4:33 AM 41.0 °F 33.5 °F 35.6 °F 81% 29.92 in 10.0 mi SW 13.8 mph - N/A   Clear
4:53 AM 42.8 °F 36.2 °F 35.6 °F 76% 29.93 in 10.0 mi SSW 12.7 mph - N/A   Clear
5:13 AM 39.2 °F 33.0 °F 35.6 °F 87% 29.93 in 10.0 mi SW 9.2 mph - N/A   Clear
5:33 AM 41.0 °F 34.7 °F 35.6 °F 81% 29.93 in 10.0 mi SSW 10.4 mph - N/A   Clear
5:54 AM 41.0 °F 34.3 °F 35.6 °F 81% 29.93 in 10.0 mi SSW 11.5 mph - N/A   Clear
6:13 AM 39.2 °F 33.0 °F 33.8 °F 81% 29.94 in 10.0 mi SSW 9.2 mph - N/A   Clear
6:54 AM 37.4 °F 32.8 °F 33.8 °F 87% 29.95 in 10.0 mi SSW 5.8 mph - N/A   Clear
7:13 AM 39.2 °F 35.9 °F 35.6 °F 87% 29.96 in 10.0 mi South 4.6 mph - N/A   Clear
7:33 AM 41.0 °F 39.0 °F 35.6 °F 81% 29.97 in 10.0 mi South 3.5 mph - N/A   Clear
7:54 AM 42.8 °F 41.1 °F 35.6 °F 76% 29.98 in 10.0 mi SSW 3.5 mph - N/A   Clear
8:13 AM 44.6 °F - 37.4 °F 76% 29.99 in 10.0 mi Calm Calm - N/A   Clear
8:33 AM 44.6 °F 41.4 °F 37.4 °F 76% 29.99 in 10.0 mi SW 5.8 mph - N/A   Clear
8:54 AM 46.4 °F 43.5 °F 37.4 °F 71% 30.00 in 10.0 mi SW 5.8 mph - N/A   Clear
9:13 AM 48.2 °F - 39.2 °F 71% 30.00 in 10.0 mi WSW 5.8 mph - N/A   Clear
9:33 AM 50.0 °F - 39.2 °F 66% 30.01 in 10.0 mi West 4.6 mph - N/A   Clear
9:54 AM 50.0 °F - 39.2 °F 66% 30.01 in 10.0 mi WNW 6.9 mph - N/A   Clear
10:13 AM 51.8 °F - 39.2 °F 62% 30.02 in 10.0 mi West 5.8 mph - N/A   Clear
10:33 AM 53.6 °F - 37.4 °F 54% 30.03 in 10.0 mi NW 9.2 mph - N/A   Clear
10:53 AM 53.6 °F - 39.2 °F 58% 30.04 in 10.0 mi NW 6.9 mph - N/A   Clear
11:13 AM 55.4 °F - 41.0 °F 58% 30.05 in 10.0 mi WNW 4.6 mph - N/A   Clear
11:33 AM 57.2 °F - 39.2 °F 51% 30.06 in 10.0 mi NNW 9.2 mph - N/A   Clear
11:53 AM 57.2 °F - 37.4 °F 48% 30.07 in 10.0 mi North 6.9 mph - N/A   Clear
12:13 PM 59.0 °F - 39.2 °F 48% 30.08 in 10.0 mi North 6.9 mph - N/A   Clear
12:33 PM 59.0 °F - 39.2 °F 48% 30.09 in 10.0 mi North 5.8 mph - N/A   Clear
12:53 PM 59.0 °F - 37.4 °F 45% 30.09 in 10.0 mi North 8.1 mph - N/A   Clear
1:13 PM 59.0 °F - 37.4 °F 45% 30.09 in 10.0 mi NNE 6.9 mph - N/A   Clear
1:33 PM 60.8 °F - 37.4 °F 42% 30.09 in 10.0 mi NNE 6.9 mph - N/A   Clear
1:53 PM 60.8 °F - 37.4 °F 42% 30.09 in 10.0 mi North 5.8 mph - N/A   Clear
2:13 PM 62.6 °F - 35.6 °F 37% 30.09 in 10.0 mi North 4.6 mph - N/A   Clear
2:33 PM 62.6 °F - 28.4 °F 27% 30.10 in 10.0 mi NNE 10.4 mph - N/A   Clear
2:53 PM 62.6 °F - 32.0 °F 32% 30.10 in 10.0 mi NNE 10.4 mph - N/A   Clear
3:13 PM 62.6 °F - 28.4 °F 27% 30.11 in 10.0 mi NNE 9.2 mph - N/A   Clear
3:33 PM 62.6 °F - 26.6 °F 26% 30.11 in 10.0 mi NNE 10.4 mph - N/A   Clear
3:53 PM 62.6 °F - 30.2 °F 30% 30.11 in 10.0 mi North 9.2 mph - N/A   Clear
4:13 PM 62.6 °F - 33.8 °F 34% 30.11 in 10.0 mi North 6.9 mph - N/A   Clear
4:33 PM 62.6 °F - 33.8 °F 34% 30.11 in 10.0 mi NE 9.2 mph - N/A   Clear
4:53 PM 62.6 °F - 35.6 °F 37% 30.11 in 10.0 mi NE 8.1 mph - N/A   Clear
5:13 PM 62.6 °F - 35.6 °F 37% 30.12 in 10.0 mi North 5.8 mph - N/A   Clear
5:33 PM 62.6 °F - 33.8 °F 34% 30.12 in 10.0 mi NNE 8.1 mph - N/A   Clear
5:53 PM 62.6 °F - 35.6 °F 37% 30.13 in 10.0 mi NNE 5.8 mph - N/A   Clear
6:13 PM 62.6 °F - 35.6 °F 37% 30.13 in 10.0 mi NNE 4.6 mph - N/A   Clear
6:33 PM 62.6 °F - 33.8 °F 34% 30.13 in 10.0 mi NNE 3.5 mph - N/A   Clear
6:53 PM 62.6 °F - 33.8 °F 34% 30.13 in 10.0 mi NNE 3.5 mph - N/A   Clear
7:13 PM 62.6 °F - 35.6 °F 37% 30.13 in 10.0 mi Calm Calm - N/A   Clear
7:33 PM 60.8 °F - 37.4 °F 42% 30.14 in 10.0 mi Calm Calm - N/A   Clear
7:54 PM 60.8 °F - 35.6 °F 39% 30.14 in 10.0 mi Calm Calm - N/A   Clear
8:13 PM 60.8 °F - 35.6 °F 39% 30.14 in 10.0 mi Calm Calm - N/A   Clear
8:33 PM 59.0 °F - 35.6 °F 42% 30.14 in 10.0 mi Calm Calm - N/A   Clear
8:54 PM 55.4 °F - 37.4 °F 51% 30.14 in 10.0 mi Calm Calm - N/A   Clear
9:13 PM 53.6 °F - 37.4 °F 54% 30.15 in 10.0 mi Calm Calm - N/A   Clear
9:33 PM 53.6 °F - 39.2 °F 58% 30.15 in 10.0 mi Calm Calm - N/A   Clear
9:54 PM 51.8 °F - 37.4 °F 58% 30.16 in 10.0 mi Calm Calm - N/A   Clear
10:13 PM 53.6 °F - 37.4 °F 54% 30.16 in 10.0 mi Calm Calm - N/A   Clear
10:34 PM 51.8 °F - 37.4 °F 58% 30.16 in 10.0 mi Calm Calm - N/A   Clear
10:53 PM 51.8 °F - 35.6 °F 54% 30.16 in 10.0 mi Calm Calm - N/A   Clear
11:13 PM 50.0 °F - 37.4 °F 62% 30.16 in 10.0 mi Calm Calm - N/A   Clear
11:33 PM 48.2 °F - 35.6 °F 62% 30.16 in 10.0 mi Calm Calm - N/A   Clear
11:53 PM 48.2 °F - 35.6 °F 62% 30.16 in 10.0 mi Calm Calm - N/A   Clear